UZB78 UZSK-UZTT

Flight info

Callsign UZB78
Flight time N/A
Altitude 27000
Route N0450F270 NIBTI M168 KUFIM
Aircraft A320/M-VGDW/C

Departure

Time N/A
Airport UZSK

Arrival

Time 2026-04-26 11:44
Airport Tashkent International Airport (UZTT)
Time Latitude Longitude Altitude Speed Heading
2026-04-26 10:50 38.81099 65.77249 1200 ft 0 kts 76°
2026-04-26 11:00 38.81100 65.77250 1201 ft 0 kts 76°
2026-04-26 11:00 38.81102 65.77260 1201 ft 2 kts 76°
2026-04-26 11:00 38.81099 65.77301 1201 ft 6 kts 127°
2026-04-26 11:00 38.81064 65.77327 1201 ft 0 kts 159°
2026-04-26 11:01 38.81043 65.77335 1201 ft 7 kts 168°
2026-04-26 11:01 38.80996 65.77284 1201 ft 12 kts 249°
2026-04-26 11:01 38.80966 65.77160 1201 ft 15 kts 254°
2026-04-26 11:02 38.80909 65.77065 1201 ft 15 kts 183°
2026-04-26 11:02 38.80775 65.77106 1201 ft 26 kts 163°
2026-04-26 11:02 38.80555 65.77189 1201 ft 39 kts 164°
2026-04-26 11:02 38.80257 65.77299 1201 ft 47 kts 165°
2026-04-26 11:03 38.80013 65.77404 1201 ft 23 kts 156°
2026-04-26 11:03 38.79984 65.77404 1201 ft 5 kts 335°
2026-04-26 11:03 38.80015 65.77390 1201 ft 0 kts 344°
2026-04-26 11:03 38.80134 65.77348 1201 ft 52 kts 344°
2026-04-26 11:04 38.80722 65.77124 1201 ft 121 kts 346°
2026-04-26 11:04 38.81680 65.76825 1425 ft 151 kts 344°
2026-04-26 11:04 38.82715 65.76489 1927 ft 162 kts 344°
2026-04-26 11:04 38.83941 65.76105 2165 ft 198 kts 344°
2026-04-26 11:05 38.85389 65.75636 2288 ft 235 kts 343°
2026-04-26 11:05 38.87051 65.75082 2467 ft 249 kts 343°
2026-04-26 11:05 38.88720 65.74455 2643 ft 252 kts 341°
2026-04-26 11:05 38.90413 65.73785 2820 ft 253 kts 341°
2026-04-26 11:06 38.92136 65.73103 3007 ft 265 kts 341°
2026-04-26 11:06 38.93855 65.72427 3171 ft 256 kts 341°
2026-04-26 11:06 38.95553 65.71769 3346 ft 255 kts 341°
2026-04-26 11:06 38.97272 65.71104 3523 ft 256 kts 341°
2026-04-26 11:07 38.98983 65.70444 3699 ft 257 kts 341°
2026-04-26 11:07 39.00699 65.69781 3874 ft 258 kts 341°
2026-04-26 11:07 39.02457 65.69326 4030 ft 262 kts 359°
2026-04-26 11:07 39.04229 65.69882 4201 ft 270 kts 26°
2026-04-26 11:08 39.05835 65.71275 4731 ft 281 kts 34°
2026-04-26 11:08 39.07370 65.72743 5818 ft 279 kts 34°
2026-04-26 11:08 39.08928 65.74236 6795 ft 282 kts 34°
2026-04-26 11:08 39.10528 65.75756 7706 ft 287 kts 34°
2026-04-26 11:09 39.12167 65.77292 8615 ft 291 kts 34°
2026-04-26 11:09 39.13796 65.78811 9482 ft 296 kts 34°
2026-04-26 11:09 39.15478 65.80379 10345 ft 300 kts 34°
2026-04-26 11:09 39.17202 65.81988 10958 ft 313 kts 34°
2026-04-26 11:10 39.19022 65.83683 11389 ft 332 kts 34°
2026-04-26 11:10 39.20962 65.85486 11791 ft 350 kts 34°
2026-04-26 11:10 39.22985 65.87366 12146 ft 368 kts 34°
2026-04-26 11:10 39.25109 65.89348 12459 ft 386 kts 34°
2026-04-26 11:11 39.27351 65.91447 12754 ft 403 kts 34°
2026-04-26 11:11 39.29636 65.93591 13055 ft 418 kts 34°
2026-04-26 11:11 39.32033 65.95847 13605 ft 425 kts 35°
2026-04-26 11:11 39.34409 65.98086 14258 ft 428 kts 34°
2026-04-26 11:12 39.36838 66.00378 14889 ft 432 kts 34°
2026-04-26 11:12 39.39274 66.02676 15494 ft 436 kts 34°
2026-04-26 11:12 39.41741 66.05006 16081 ft 440 kts 34°
2026-04-26 11:12 39.44220 66.07348 16647 ft 444 kts 34°
2026-04-26 11:13 39.46722 66.09715 17200 ft 448 kts 34°
2026-04-26 11:13 39.48896 66.11773 17669 ft 451 kts 34°
2026-04-26 11:13 39.50978 66.13745 18100 ft 454 kts 34°
2026-04-26 11:13 39.53534 66.16168 18613 ft 457 kts 34°
2026-04-26 11:14 39.56055 66.18715 19112 ft 462 kts 38°
2026-04-26 11:14 39.58493 66.21463 19599 ft 466 kts 40°
2026-04-26 11:14 39.60888 66.24311 20077 ft 469 kts 41°
2026-04-26 11:14 39.63287 66.27203 20532 ft 473 kts 41°
2026-04-26 11:15 39.65727 66.30146 20966 ft 476 kts 41°
2026-04-26 11:15 39.68152 66.33065 21385 ft 480 kts 41°
2026-04-26 11:15 39.70612 66.36024 21793 ft 484 kts 41°
2026-04-26 11:15 39.72976 66.39179 22183 ft 488 kts 46°
2026-04-26 11:16 39.75124 66.42632 22556 ft 493 kts 52°
2026-04-26 11:16 39.77050 66.46401 22914 ft 497 kts 57°
2026-04-26 11:16 39.78817 66.50265 23259 ft 500 kts 58°
2026-04-26 11:16 39.80567 66.54206 23608 ft 503 kts 59°
2026-04-26 11:17 39.82299 66.58128 24079 ft 502 kts 59°
2026-04-26 11:17 39.84044 66.62074 24591 ft 500 kts 58°
2026-04-26 11:17 39.85798 66.66031 25077 ft 499 kts 59°
2026-04-26 11:17 39.87538 66.69963 25500 ft 499 kts 59°
2026-04-26 11:18 39.89282 66.73904 25852 ft 500 kts 59°
2026-04-26 11:18 39.91024 66.77834 26162 ft 502 kts 59°
2026-04-26 11:18 39.92768 66.81767 26458 ft 504 kts 59°
2026-04-26 11:18 39.94524 66.85723 26759 ft 505 kts 59°
2026-04-26 11:19 39.96295 66.89716 27000 ft 507 kts 59°
2026-04-26 11:19 39.98069 66.93720 27033 ft 508 kts 59°
2026-04-26 11:19 39.99844 66.97729 27040 ft 508 kts 59°
2026-04-26 11:19 40.01599 67.01695 27043 ft 508 kts 59°
2026-04-26 11:20 40.03370 67.05705 27044 ft 509 kts 59°
2026-04-26 11:20 40.05160 67.09763 27045 ft 509 kts 59°
2026-04-26 11:20 40.06907 67.13728 27045 ft 509 kts 59°
2026-04-26 11:20 40.08691 67.17784 27045 ft 509 kts 59°
2026-04-26 11:21 40.10462 67.21813 27044 ft 509 kts 59°
2026-04-26 11:21 40.12246 67.25848 27045 ft 509 kts 59°
2026-04-26 11:21 40.14026 67.29876 27045 ft 509 kts 59°
2026-04-26 11:21 40.15774 67.33847 27046 ft 509 kts 59°
2026-04-26 11:22 40.17548 67.37894 27046 ft 509 kts 59°
2026-04-26 11:22 40.19292 67.41888 27046 ft 509 kts 59°
2026-04-26 11:22 40.21074 67.45981 27046 ft 509 kts 59°
2026-04-26 11:22 40.22812 67.49979 27046 ft 509 kts 59°
2026-04-26 11:23 40.24583 67.54056 27047 ft 509 kts 59°
2026-04-26 11:23 40.26349 67.58124 27050 ft 509 kts 59°
2026-04-26 11:23 40.28091 67.62143 27055 ft 509 kts 59°
2026-04-26 11:23 40.29853 67.66213 27061 ft 508 kts 60°
2026-04-26 11:24 40.31615 67.70306 27069 ft 508 kts 60°
2026-04-26 11:24 40.33365 67.74379 27077 ft 508 kts 60°
2026-04-26 11:24 40.35131 67.78494 27084 ft 508 kts 60°
2026-04-26 11:24 40.36880 67.82566 27089 ft 508 kts 60°
2026-04-26 11:25 40.38617 67.86616 27093 ft 508 kts 60°
2026-04-26 11:25 40.40362 67.90687 27095 ft 507 kts 60°
2026-04-26 11:25 40.42126 67.94804 27097 ft 507 kts 60°
2026-04-26 11:25 40.43848 67.98833 27097 ft 507 kts 60°
2026-04-26 11:26 40.45590 68.02910 27098 ft 508 kts 60°
2026-04-26 11:26 40.47320 68.06966 27098 ft 508 kts 60°
2026-04-26 11:26 40.49073 68.11081 27098 ft 507 kts 60°
2026-04-26 11:26 40.50775 68.15080 27098 ft 507 kts 60°
2026-04-26 11:27 40.52496 68.19131 26863 ft 509 kts 60°
2026-04-26 11:27 40.54242 68.23245 26054 ft 506 kts 60°
2026-04-26 11:27 40.55954 68.27280 25134 ft 504 kts 60°
2026-04-26 11:27 40.57636 68.31252 24160 ft 503 kts 60°
2026-04-26 11:28 40.59370 68.35305 23108 ft 503 kts 58°
2026-04-26 11:28 40.61273 68.39192 22271 ft 497 kts 54°
2026-04-26 11:28 40.63361 68.42796 21638 ft 488 kts 49°
2026-04-26 11:28 40.65573 68.46075 21011 ft 480 kts 45°
2026-04-26 11:29 40.67846 68.49227 20376 ft 473 kts 45°
2026-04-26 11:29 40.70127 68.52344 19731 ft 466 kts 45°
2026-04-26 11:29 40.72404 68.55468 19079 ft 461 kts 45°
2026-04-26 11:29 40.74577 68.58518 18446 ft 455 kts 47°
2026-04-26 11:30 40.76673 68.61627 17808 ft 450 kts 47°
2026-04-26 11:30 40.78727 68.64730 17136 ft 446 kts 48°
2026-04-26 11:30 40.80736 68.67778 16397 ft 444 kts 49°
2026-04-26 11:30 40.82743 68.70919 15605 ft 441 kts 50°
2026-04-26 11:31 40.84671 68.74039 14815 ft 439 kts 51°
2026-04-26 11:31 40.86580 68.77145 14016 ft 436 kts 51°
2026-04-26 11:31 40.88480 68.80232 13232 ft 433 kts 50°
2026-04-26 11:31 40.90387 68.83325 12528 ft 427 kts 50°
2026-04-26 11:32 40.92240 68.86327 11878 ft 421 kts 50°
2026-04-26 11:32 40.94082 68.89311 11350 ft 404 kts 51°
2026-04-26 11:32 40.95760 68.92035 11108 ft 368 kts 51°
2026-04-26 11:32 40.97313 68.94560 10885 ft 337 kts 51°
2026-04-26 11:33 40.98740 68.96884 10700 ft 314 kts 52°
2026-04-26 11:33 41.00102 68.99101 10541 ft 303 kts 52°
2026-04-26 11:33 41.01400 69.01216 10405 ft 294 kts 52°
2026-04-26 11:33 41.02685 69.03310 10290 ft 287 kts 52°
2026-04-26 11:34 41.03930 69.05338 10193 ft 284 kts 52°
2026-04-26 11:34 41.05184 69.07383 10109 ft 282 kts 52°
2026-04-26 11:34 41.06422 69.09403 10029 ft 281 kts 52°
2026-04-26 11:34 41.07656 69.11413 9695 ft 283 kts 52°
2026-04-26 11:35 41.08900 69.13438 9371 ft 283 kts 52°
2026-04-26 11:35 41.10141 69.15464 9048 ft 282 kts 52°
2026-04-26 11:35 41.11383 69.17477 8728 ft 282 kts 51°
2026-04-26 11:35 41.12634 69.19502 8409 ft 282 kts 51°
2026-04-26 11:36 41.13880 69.21530 8095 ft 281 kts 52°
2026-04-26 11:36 41.14891 69.23741 7778 ft 279 kts 69°
2026-04-26 11:36 41.15408 69.26180 7478 ft 276 kts 81°
2026-04-26 11:36 41.15698 69.28689 7175 ft 275 kts 84°
2026-04-26 11:37 41.15948 69.31209 6876 ft 274 kts 84°
2026-04-26 11:37 41.16207 69.33748 6577 ft 273 kts 83°
2026-04-26 11:37 41.16472 69.36222 6297 ft 271 kts 83°
2026-04-26 11:37 41.16744 69.38700 6018 ft 270 kts 82°
2026-04-26 11:38 41.17018 69.41163 5731 ft 269 kts 82°
2026-04-26 11:38 41.17294 69.43642 5438 ft 269 kts 82°
2026-04-26 11:38 41.17566 69.46085 5149 ft 268 kts 82°
2026-04-26 11:38 41.17844 69.48563 4852 ft 268 kts 80°
2026-04-26 11:39 41.18521 69.50872 4510 ft 269 kts 51°
2026-04-26 11:39 41.19928 69.52402 4210 ft 263 kts 20°
2026-04-26 11:39 41.21699 69.52831 3918 ft 254 kts 352°
2026-04-26 11:39 41.23446 69.52549 3647 ft 251 kts 347°
2026-04-26 11:40 41.25163 69.52191 3369 ft 250 kts 347°
2026-04-26 11:40 41.26811 69.51468 3300 ft 238 kts 320°
2026-04-26 11:40 41.27805 69.49899 3308 ft 216 kts 290°
2026-04-26 11:40 41.28064 69.48015 3308 ft 198 kts 265°
2026-04-26 11:41 41.27895 69.46217 3319 ft 194 kts 262°
2026-04-26 11:42 41.26659 69.35493 2249 ft 136 kts 264°
2026-04-26 11:43 41.26519 69.34241 2079 ft 137 kts 264°
2026-04-26 11:43 41.26379 69.32984 1895 ft 138 kts 264°
2026-04-26 11:43 41.26236 69.31732 1720 ft 138 kts 264°
2026-04-26 11:43 41.26093 69.30450 1523 ft 140 kts 266°
2026-04-26 11:44 41.25960 69.29192 1436 ft 133 kts 265°
2026-04-26 11:44 41.25845 69.28063 1425 ft 103 kts 261°
2026-04-26 11:44 41.25758 69.27296 1425 ft 74 kts 262°
2026-04-26 11:44 41.25695 69.26751 1425 ft 45 kts 261°
2026-04-26 11:45 41.25650 69.26348 1425 ft 41 kts 262°
2026-04-26 11:45 41.25612 69.25996 1425 ft 30 kts 261°
2026-04-26 11:45 41.25560 69.25806 1425 ft 19 kts 200°
2026-04-26 11:45 41.25497 69.25806 1425 ft 0 kts 173°
2026-04-26 11:46 41.25478 69.25809 1425 ft 8 kts 173°
2026-04-26 11:46 41.25389 69.25851 1425 ft 17 kts 135°
2026-04-26 11:46 41.25328 69.26012 1425 ft 21 kts 111°
2026-04-26 11:47 41.25270 69.26209 1425 ft 23 kts 108°
2026-04-26 11:47 41.25260 69.26372 1425 ft 18 kts 90°
2026-04-26 11:47 41.25260 69.26513 1425 ft 11 kts 90°
2026-04-26 11:47 41.25228 69.26573 1425 ft 4 kts 169°
2026-04-26 11:48 41.25213 69.26574 1425 ft 0 kts 182°
2026-04-26 11:48 41.25208 69.26574 1425 ft 0 kts 182°